TITAN 3C TRANSTAGE DEB, 1671

Orbit data source: Space-Track

TITAN 3C TRANSTAGE DEB, 1671 is space debris in LEO originally from a launch on Fri, 15 Oct 1965 UTC launched from the Air Force Eastern Test Range (AFETR). Debris objects in space refer to the collection of defunct objects orbiting the Earth. Examples of debris include non-operational satellites, rocket bodies, and fragments generated from explosions, collisions, or faulty payload assembly.

Loading next visibility...
Identifier
1671, 1965-082AJ
Orbit
LEO
Country
Flag of USUS
Related business
Manufacturer
Unknown
Mission
Spacecraft
Bus & Motor
Unknown
Mass
Unknown
Launch date (UTC)
1965-10-15 (60 years ago)
Launch vehicle
Unknown
Launch site
Air Force Eastern Test Range (AFETR)
Object type
Payload
Rocket body
Debris
Shape & HBR
Unknown
Radar Cross Section
Medium (>0.1 m² and <1 m²)

Expand to show TLE details & history
Last TLE update: 13 hours ago

TLE from 13 hours ago
0 TITAN 3C TRANSTAGE DEB
1 01671U 65082AJ  25261.18761380  .00000525  00000-0  11301-3 0  9997
2 01671  32.1604 199.9363 0052446 331.0258  28.7479 14.53691275146782
Epoch: 2025-09-18T04:30Z
TLE epoch observation values (Epoch: 2025-09-18T04:30:09.832Z)
Latitude
0.00001°
Longitude
135.04255°
Altitude
679.721 km
Speed
7.536 km/s
True Right ascension
13h 19m 44s
True Declination
0° 00' 00"
Sunlit
Object was in daylight at epoch
Visualization orbit readout
Latitude
Unknown
Longitude
Unknown
Altitude
Unknown
Speed
Unknown
Apparent Right ascension
Unknown
Apparent Declination
Unknown
Sunlit
N/A
Visualization observer readout
Local Sidereal Time
10:27:55
Azimuth
Unknown
Elevation
Unknown
Doppler factor
Unknown
Orbital elements
Apogee altitude
754.407 km
Perigee altitude
679.982 km
Semi-major axis
7,095.332 km
Eccentricity
0.00524
Inclination
32.1604°
RAAN
199.9363°
Arg. of periapsis
331.0258°
True anomaly
29.03862°
Mean anomaly
28.7479°
Eccentric anomaly
28.89309°
Mean motion
3.63148 °/min
Orbital period
99.13 mins
BSTAR
0.00011301
Loading maneuver chart data...
Computing Atmospheric mass density...

Documentation

Showing up to 5 results
|